[[{"header":{"parameterUnit":"m.s-1","parameterCategory":1,"la1":30.2991,"la2":30.254,"lo1":-89.0895,"lo2":-89.0444,"dy":0.0017,"dx":0.0017,"nx":28,"ny":28,"refTime":"2023-11-14T09:00:00:Z","depth":0,"parameterNumber":2,"parameterNumberName":"U-component_of_WINDS"},"data":[0,0,0,0,0,0,0,0,0,0,0,0,0,0,0,0,0,0,0,0,0,0,0,0,0,0,0,0,0,0,0,0,0,0,0,0,0,0,0,0,0,0,0,0,0,0,0,0,0,0,0,0,0,0,0,0,0,0,-10.9829,-10.9831,0,-11.0054,-11.0057,-11.0059,-10.985,-10.9842,-10.9833,-10.9825,-11.0061,-11.0075,-11.0089,0,0,0,0,0,0,0,0,0,0,0,0,0,-10.9223,-10.9235,-10.9829,-10.9832,-10.9834,-11.0054,-11.0057,-11.006,-10.9852,-10.9841,-10.9831,-10.9821,-11.0057,-11.0073,-11.009,0,0,0,0,0,0,0,0,0,0,0,0,0,-10.9471,-10.9239,-10.9828,-10.9757,-10.9752,-11.0053,-11.0057,-11.0061,-10.9854,-10.9841,-10.9828,-10.9817,-11.0051,-11.0072,-11.0093,-11.0477,0,0,-11.0157,-11.0167,0,0,0,0,0,0,0,0,-10.9457,-10.9494,-10.9764,-10.9762,-10.9758,-10.9911,-10.993,-11.0201,-10.9857,-10.9816,-10.9825,-10.981,-11.0022,-11.0045,-11.0115,-11.0488,-11.0498,-11.0159,-11.0172,-11.0181,-11.0187,0,0,0,0,0,0,0,-10.944,-10.9483,-10.9918,-10.9769,-10.9765,-10.9715,-10.9736,-10.998,-10.9987,-10.9818,-10.9803,-10.9833,-11.0018,-11.0095,-11.0119,-11.0502,-11.0159,-11.0178,-11.0191,-11.0199,-11.1204,-11.1218,0,0,0,0,0,0,-10.943,-10.947,-10.9911,-10.9925,-10.9573,-10.9736,-10.976,-10.9875,-10.9984,-10.9988,-10.9843,-10.9822,-11.0065,-11.0094,-11.0126,-11.0585,-11.0181,-11.0201,-11.0213,-11.1191,-11.1207,-11.1223,0,0,0,0,0,0,-10.9418,-10.9471,-10.9902,-10.9694,-10.9744,-10.976,-10.9891,-10.9886,-10.9963,-11.0003,-11.0003,-10.9921,-11.0056,-11.0097,-11.0392,-11.0591,-11.0211,-11.023,-11.1174,-11.1196,-11.1215,-11.1506,0,0,0,0,0,0,-10.9401,-10.9468,-10.9613,-10.9698,-10.9756,-11.0163,-10.9903,-10.9899,-10.9999,-10.9974,-11.0076,-11.008,-11.0049,-11.0361,-11.0413,-11.0613,-11.0246,-11.1156,-11.1184,-11.1208,-11.1479,-11.1534,-11.1582,0,0,0,0,0,-10.938,-10.9687,-10.9622,-10.9676,-10.9938,-11.0174,-11.0208,-11.0164,-11.0016,-11.0163,-11.0189,-11.0077,-11.056,-11.0393,-11.045,-11.0659,-11.1144,-11.1176,-11.1206,-11.1456,-11.1523,-11.1581,0,0,0,0,0,0,-10.9626,-10.9696,-10.9625,-10.9967,-11.0067,-11.0138,-11.0322,-11.0237,-11.0381,-11.0351,-11.0293,-11.0318,-11.063,-11.0673,-11.0486,-11.1038,-11.0828,-11.0873,-11.0998,-11.1063,-11.1114,-11.1097,-11.0264,0,0,0,0,0,-10.9719,-10.9904,-10.9956,-11.0254,-11.0307,-11.0307,-11.0408,-11.0366,-11.0467,-11.0508,-11.0555,-11.0659,-11.0834,-11.0951,-11.1114,-11.1484,-11.1504,-11.1656,-11.1707,-11.175,-11.1789,-11.1991,-11.2059,-11.1326,-11.1326,-11.1325,0,0,-10.9915,-10.9977,-11.0097,-11.0305,-11.0376,-11.0571,-11.0343,-11.0558,-11.0703,-11.0541,-11.0823,-11.0862,-11.0973,-11.1309,-11.1458,-11.1355,-11.1996,-11.179,-11.1823,-11.184,-11.203,-11.2099,-11.2161,-11.1347,-11.1343,-11.134,0,0,-11.0372,-11.0436,-11.0691,-11.0768,-11.0879,-11.0877,-11.0939,-11.1025,-11.1045,-11.1326,-11.1209,-11.1381,-11.1684,-11.1769,-11.1852,-11.2343,-11.2247,-11.2398,-11.2668,-11.2865,-11.2923,-11.2974,-11.3152,-11.3216,-11.2437,-11.2438,-11.2438,0,-11.0601,-11.0888,-11.0834,-11.1058,-11.1154,-11.1016,-11.1276,-11.1353,-11.1513,-11.1584,-11.1464,-11.1842,-11.1908,-11.2262,-11.2382,-11.2453,-11.2524,-11.2387,-11.2919,-11.297,-11.3016,-11.3185,-11.3252,-11.2456,-11.2454,-11.2452,-11.245,0,-11.1167,-11.1368,-11.1561,-11.1718,-11.1836,-11.2077,-11.2061,-11.2187,-11.2136,-11.2148,-11.2438,-11.2511,-11.2688,-11.2769,-11.2721,-11.3118,-11.305,-11.2927,-11.2715,-11.3105,-11.3263,-11.3327,-11.2481,-11.2475,-11.2469,-11.2465,0,0,-11.1783,-11.1908,-11.198,-11.2051,-11.2164,-11.232,-11.2556,-11.2727,-11.2838,-11.2953,-11.3151,-11.3411,-11.3298,-11.3393,-11.3353,-11.3526,-11.3914,-11.3381,-11.3383,-11.348,-11.4359,-11.4452,-11.4528,-11.385,-11.3862,-11.3872,-11.435,0,-11.2245,-11.2653,-11.2613,-11.3002,-11.3189,-11.3061,-11.3267,-11.336,-11.3378,-11.3541,-11.356,-11.3746,-11.3581,-11.3638,-11.3803,-11.3832,-11.409,-11.3797,-11.4037,-11.4046,-11.4014,-11.461,-11.4709,-11.5157,-11.4411,-11.4422,-11.4429,0,-11.2838,-11.2974,-11.3382,-11.3469,-11.3546,-11.3732,-11.3887,-11.4043,-11.4147,-11.4148,-11.4255,-11.4187,-11.4427,-11.4209,-11.454,-11.4342,-11.4438,-11.4467,-11.4483,-11.4505,-11.4262,-11.465,-11.5298,-11.5366,-11.4525,-11.4518,-11.4511,0,-11.325,-11.3535,-11.3816,-11.388,-11.3988,-11.4122,-11.4174,-11.4265,-11.4372,-11.4508,-11.4578,-11.4741,-11.4831,-11.496,-11.4939,-11.4782,-11.5278,-11.5058,-11.5288,-11.5289,-11.5399,-11.5392,-11.6074,-11.5459,-11.5458,-11.5456,-11.5455,0,-11.377,-11.4026,-11.4003,-11.4176,-11.4459,-11.4411,-11.4693,-11.4728,-11.4811,-11.4991,-11.4891,-11.5062,-11.5022,-11.5193,-11.5178,-11.5457,-11.5498,-11.5507,-11.55,-11.5517,-11.5516,-11.558,-11.5549,-11.5474,-11.547,-11.5467,-11.5464,0,-11.4278,-11.4273,-11.4572,-11.4649,-11.4675,-11.4881,-11.4948,-11.5113,-11.5123,-11.5352,-11.5403,-11.5419,-11.5616,-11.5607,-11.5829,-11.5819,-11.6163,-11.6119,-11.6127,-11.6119,-11.635,-11.6329,-11.7097,-11.7196,-11.6516,-11.6522,-11.6528,0,-11.4611,-11.4805,-11.4904,-11.5016,-11.5077,-11.5259,-11.5368,-11.5328,-11.5446,-11.558,-11.573,-11.5917,-11.6064,-11.6384,-11.6418,-11.6588,-11.6549,-11.6806,-11.6574,-11.6585,-11.6555,-11.6544,-11.6565,-11.6852,-11.686,-11.6866,-11.6871,0,-11.5205,-11.5193,-11.5351,-11.5512,-11.5644,-11.5769,-11.5882,-11.5981,-11.5953,-11.6091,-11.629,-11.6405,-11.6632,-11.682,-11.6983,-11.7038,-11.6953,-11.6944,-11.7006,-11.7026,-11.7024,-11.7031,-11.6254,-11.6927,-11.6921,-11.6917,-11.6914,-11.6912,-11.5636,-11.5803,-11.5899,-11.6081,-11.6162,-11.6271,-11.6431,-11.646,-11.6625,-11.6806,-11.6773,-11.6998,-11.7099,-11.731,-11.738,-11.7556,-11.7465,-11.7555,-11.7578,-11.7602,-11.7629,-11.6995,-11.7586,-11.7584,-11.7583,-11.7581,-11.758,0,-11.6225,-11.6281,-11.6449,-11.6611,-11.6755,-11.666,-11.6781,-11.6909,-11.7106,-11.7208,-11.7355,-11.7585,-11.7767,-11.7816,-11.7991,-11.8123,-11.8089,-11.8171,-11.8162,-11.8177,-11.7699,-11.7628,-11.8196,-11.8196,-11.8196,-11.8196,-11.8196,-11.8196,-11.6549,-11.6827,-11.6827,-11.7145,-11.7199,-11.7417,-11.7495,-11.7596,-11.7677,-11.7938,-11.8088,-11.8118,-11.8199,-11.838,-11.8544,-11.8554,-11.8624,-11.8723,-11.8718,-11.8271,-11.821,-11.8151,-11.8084,-11.8739,-11.8739,-11.918,-11.9184,-11.9188]},{"header":{"parameterUnit":"m.s-1","parameterCategory":1,"la1":30.2991,"la2":30.254,"lo1":-89.0895,"lo2":-89.0444,"dy":0.0017,"dx":0.0017,"nx":28,"ny":28,"refTime":"2023-11-14T09:00:00:Z","depth":0,"parameterNumber":3,"parameterNumberName":"V-component_of_WINDS"},"data":[0,0,0,0,0,0,0,0,0,0,0,0,0,0,0,0,0,0,0,0,0,0,0,0,0,0,0,0,0,0,0,0,0,0,0,0,0,0,0,0,0,0,0,0,0,0,0,0,0,0,0,0,0,0,0,0,0,0,-4.2914,-4.2911,0,-4.2655,-4.2652,-4.2649,-4.2516,-4.2516,-4.2516,-4.2515,-4.2241,-4.2234,-4.2227,0,0,0,0,0,0,0,0,0,0,0,0,0,-4.3282,-4.3276,-4.2914,-4.2911,-4.2908,-4.2656,-4.2652,-4.2648,-4.2516,-4.2516,-4.2515,-4.2515,-4.2244,-4.2235,-4.2227,0,0,0,0,0,0,0,0,0,0,0,0,0,-4.3082,-4.3274,-4.2915,-4.2811,-4.28,-4.2656,-4.2652,-4.2647,-4.2516,-4.2516,-4.2515,-4.2515,-4.2246,-4.2236,-4.2225,-4.2162,0,0,-4.2192,-4.2188,0,0,0,0,0,0,0,0,-4.3094,-4.3069,-4.283,-4.2818,-4.2805,-4.2618,-4.2681,-4.2484,-4.2516,-4.2623,-4.2515,-4.2515,-4.2366,-4.2345,-4.2297,-4.215,-4.2138,-4.2191,-4.2185,-4.218,-4.2177,0,0,0,0,0,0,0,-4.3108,-4.3079,-4.2811,-4.2826,-4.2811,-4.2774,-4.2745,-4.2643,-4.2498,-4.2614,-4.2604,-4.2575,-4.2359,-4.2308,-4.229,-4.2134,-4.2192,-4.2182,-4.2175,-4.2171,-4.1915,-4.1915,0,0,0,0,0,0,-4.314,-4.3092,-4.2819,-4.2804,-4.2952,-4.2768,-4.2736,-4.2678,-4.2499,-4.2472,-4.2576,-4.257,-4.2326,-4.2302,-4.2279,-4.219,-4.218,-4.217,-4.2164,-4.1915,-4.1915,-4.1914,0,0,0,0,0,0,-4.3148,-4.3117,-4.283,-4.2945,-4.2905,-4.2761,-4.2697,-4.2673,-4.2621,-4.2471,-4.2443,-4.2551,-4.2325,-4.2295,-4.2192,-4.2179,-4.2165,-4.2156,-4.1916,-4.1915,-4.1915,-4.2014,0,0,0,0,0,0,-4.3159,-4.3121,-4.3099,-4.2945,-4.29,-4.2751,-4.2697,-4.2668,-4.2604,-4.2594,-4.244,-4.2414,-4.2323,-4.2209,-4.2181,-4.2164,-4.2147,-4.1916,-4.1915,-4.1915,-4.2011,-4.2017,-4.2022,0,0,0,0,0,-4.3173,-4.3136,-4.3098,-4.3066,-4.287,-4.275,-4.2724,-4.2622,-4.2604,-4.2578,-4.248,-4.2419,-4.2185,-4.2199,-4.2167,-4.2146,-4.1916,-4.1916,-4.1915,-4.2009,-4.2016,-4.2022,0,0,0,0,0,0,-4.3289,-4.3114,-4.307,-4.2983,-4.2883,-4.2728,-4.2693,-4.2634,-4.2534,-4.2529,-4.2404,-4.237,-4.2278,-4.2201,-4.222,-4.2073,-4.2044,-4.2037,-4.2126,-4.2132,-4.2137,-4.2156,-4.2138,0,0,0,0,0,-4.3305,-4.3227,-4.3076,-4.3014,-4.2966,-4.2839,-4.2783,-4.2713,-4.2603,-4.2559,-4.2454,-4.2346,-4.2247,-4.2185,-4.2087,-4.1999,-4.1961,-4.1969,-4.1974,-4.1979,-4.1974,-4.1916,-4.1917,-4.1912,-4.1912,-4.1912,0,0,-4.3336,-4.3231,-4.3189,-4.3034,-4.2948,-4.2865,-4.2803,-4.2719,-4.2655,-4.2545,-4.2441,-4.236,-4.2231,-4.2135,-4.2087,-4.2068,-4.1966,-4.1978,-4.1983,-4.1975,-4.1916,-4.1916,-4.1917,-4.1911,-4.1911,-4.1912,0,0,-4.3351,-4.3265,-4.3202,-4.3117,-4.2988,-4.2902,-4.2887,-4.274,-4.2683,-4.2577,-4.2492,-4.2411,-4.2246,-4.2156,-4.2089,-4.2066,-4.2003,-4.2037,-4.2064,-4.201,-4.201,-4.2009,-4.1997,-4.1995,-4.2032,-4.2032,-4.2032,0,-4.3405,-4.328,-4.3176,-4.3095,-4.3028,-4.2926,-4.2858,-4.2779,-4.2624,-4.2577,-4.256,-4.2347,-4.2254,-4.2132,-4.2126,-4.2077,-4.2051,-4.2053,-4.2019,-4.2017,-4.2015,-4.2002,-4.1998,-4.2037,-4.2036,-4.2036,-4.2035,0,-4.3351,-4.3265,-4.3229,-4.3083,-4.3011,-4.2938,-4.2818,-4.2757,-4.2692,-4.2608,-4.2498,-4.2382,-4.2256,-4.2223,-4.2159,-4.209,-4.2082,-4.2044,-4.2012,-4.2022,-4.2008,-4.2002,-4.2044,-4.2042,-4.2041,-4.2039,0,0,-4.3432,-4.3228,-4.3216,-4.3147,-4.2996,-4.2925,-4.2844,-4.2724,-4.2672,-4.2567,-4.2493,-4.2354,-4.2315,-4.2239,-4.2164,-4.2117,-4.21,-4.2082,-4.2077,-4.2087,-4.2012,-4.2041,-4.2037,-4.2058,-4.2057,-4.2056,-4.2022,0,-4.3423,-4.3277,-4.3179,-4.307,-4.2986,-4.2887,-4.2815,-4.2712,-4.263,-4.2544,-4.2451,-4.2353,-4.2312,-4.2265,-4.2214,-4.2113,-4.2082,-4.2114,-4.1983,-4.198,-4.2017,-4.203,-4.2061,-4.2035,-4.2016,-4.2015,-4.2014,0,-4.3393,-4.3293,-4.3176,-4.303,-4.2991,-4.293,-4.2808,-4.2729,-4.2608,-4.255,-4.2465,-4.2387,-4.2292,-4.227,-4.2135,-4.2158,-4.2098,-4.204,-4.2036,-4.2019,-4.1997,-4.201,-4.2024,-4.202,-4.2004,-4.2005,-4.2006,0,-4.346,-4.3295,-4.3203,-4.3147,-4.2976,-4.2934,-4.2859,-4.2739,-4.2671,-4.2563,-4.2517,-4.24,-4.2335,-4.2244,-4.2134,-4.2129,-4.2009,-4.1978,-4.1955,-4.1957,-4.1933,-4.1936,-4.1936,-4.1899,-4.1899,-4.1899,-4.1899,0,-4.3458,-4.339,-4.323,-4.3174,-4.3092,-4.2977,-4.2899,-4.2815,-4.2708,-4.2629,-4.2535,-4.2463,-4.2324,-4.2234,-4.2147,-4.2046,-4.2018,-4.1966,-4.1943,-4.1973,-4.1979,-4.1931,-4.1929,-4.1898,-4.1898,-4.1899,-4.1899,0,-4.3519,-4.341,-4.3302,-4.3149,-4.3108,-4.3054,-4.292,-4.2858,-4.2771,-4.2672,-4.2642,-4.2503,-4.239,-4.2273,-4.212,-4.2062,-4.1963,-4.1933,-4.2005,-4.1992,-4.1974,-4.1976,-4.1941,-4.1928,-4.1904,-4.1904,-4.1905,0,-4.3524,-4.3469,-4.331,-4.3252,-4.318,-4.3088,-4.3019,-4.2902,-4.2832,-4.2688,-4.2643,-4.2524,-4.2423,-4.2247,-4.213,-4.2011,-4.1975,-4.1971,-4.1957,-4.1987,-4.1971,-4.1975,-4.1967,-4.1976,-4.1977,-4.1977,-4.1978,0,-4.3544,-4.3492,-4.3397,-4.3282,-4.3202,-4.3105,-4.3004,-4.2961,-4.2823,-4.2749,-4.2635,-4.2556,-4.24,-4.2282,-4.2148,-4.2067,-4.1997,-4.1984,-4.1971,-4.2,-4.2043,-4.2016,-4.2015,-4.1984,-4.1984,-4.1983,-4.1983,-4.1983,-4.3574,-4.3519,-4.3398,-4.3293,-4.3206,-4.3113,-4.3046,-4.295,-4.2854,-4.2719,-4.2655,-4.2539,-4.2414,-4.2228,-4.2148,-4.2052,-4.2032,-4.2016,-4.2011,-4.2008,-4.2014,-4.206,-4.2028,-4.2027,-4.2027,-4.2027,-4.2027,0,-4.3586,-4.3502,-4.3408,-4.327,-4.3187,-4.3133,-4.3017,-4.295,-4.285,-4.2741,-4.2643,-4.2509,-4.2392,-4.2265,-4.214,-4.2088,-4.2052,-4.2058,-4.206,-4.2041,-4.204,-4.2062,-4.2089,-4.2089,-4.2089,-4.2089,-4.2089,-4.2089,-4.3582,-4.3485,-4.3419,-4.3275,-4.319,-4.3078,-4.3016,-4.2928,-4.284,-4.2695,-4.2599,-4.2518,-4.2399,-4.2264,-4.2153,-4.2118,-4.2075,-4.209,-4.2045,-4.2047,-4.2042,-4.2037,-4.2057,-4.2082,-4.2082,-4.2053,-4.2053,-4.2053]}]]